This demonstration page uses our WeatherBlox Daily Observations layout. Learn more.

Left ArrowRight Arrow

39.29038, -76.61219

Hourly Observations for July 7, 2021

Temp ( °F °C ) Dew Point ( °F °C ) Humidity (%) Winds ( mph kmh ) Pressure ( in mb ) Visibility ( mi km ) Precip ( " mm )
12:54 am 00:54 Partly Cloudy 83 28.3 70 21.1 65 65 SW 6 9 29.98 1015 10 16 N/A
1:54 am 01:54 Clear 81 27.2 69 20.6 67 67 WSW 3 6 29.98 1015 10 16 N/A
2:54 am 02:54 Clear 79 26.1 69 20.6 72 72 WSW 3 6 29.98 1015 10 16 N/A
3:54 am 03:54 Mostly Clear 79 26.1 68 20 69 69 SW 3 6 29.97 1015 10 16 N/A
4:54 am 04:54 Clear 78 25.6 68 20 71 71 SW 7 11 29.97 1015 10 16 N/A
5:54 am 05:54 Mostly Sunny 78 25.6 68 20 71 71 SW 5 7 29.97 1015 10 16 N/A
6:54 am 06:54 Mostly Sunny 78 25.6 69 20.6 74 74 WSW 5 7 29.98 1015 10 16 N/A
7:54 am 07:54 Mostly Sunny 82 27.8 70 21.1 67 67 SW 7 11 29.99 1016 10 16 N/A
8:54 am 08:54 Mostly Sunny 85 29.4 72 22.2 65 65 WSW 5 7 29.99 1016 10 16 N/A
9:54 am 09:54 Sunny 89 31.7 72 22.2 57 57 W 5 7 29.98 1015 10 16 N/A
10:54 am 10:54 Sunny 91 32.8 72 22.2 54 54 N N/A 29.98 1015 10 16 N/A
11:54 am 11:54 Mostly Sunny 93 33.9 70 21.1 47 47 VRB 3 6 29.97 1015 10 16 N/A
12:54 pm 12:54 Partly Cloudy 94 34.4 70 21.1 46 46 SSW 6 9 29.96 1015 10 16 N/A
1:54 pm 13:54 Partly Cloudy 95 35 71 21.7 46 46 S 5 7 29.94 1014 10 16 N/A
2:54 pm 14:54 Partly Cloudy 96 35.6 70 21.1 43 43 SSW 8 13 29.93 1014 10 16 N/A
3:32 pm 15:32 Mostly Cloudy with Thunderstorms 91 32.8 75 23.9 59 59 SSE 8 13 29.91 1013 10 16 N/A
3:54 pm 15:54 Windy with Storms Likely 87 30.6 70 21.1 57 57 WSW 20 31 29.94 1014 9 14 0.00 0.00
4:04 pm 16:04 Cloudy with Thunderstorms 75 23.9 67 19.4 76 76 NW 22 35 29.94 1014 2 3 0.01 0.25
4:13 pm 16:13 Mostly Cloudy with Thunderstorms 76 24.4 65 18.3 69 69 NW 16 26 29.93 1014 4 6 0.06 1.52
4:54 pm 16:54 Mostly Cloudy 85 29.4 69 20.6 59 59 N N/A 29.92 1013 10 16 0.06 1.52
5:54 pm 17:54 Mostly Cloudy 89 31.7 72 22.2 57 57 ESE 7 11 29.90 1013 9 14 N/A
6:54 pm 18:54 Mostly Cloudy 88 31.1 74 23.3 63 63 SSE 5 7 29.89 1012 10 16 N/A
7:54 pm 19:54 Mostly Cloudy 86 30 73 22.8 65 65 S 5 7 29.91 1013 10 16 N/A
8:54 pm 20:54 Mostly Cloudy 84 28.9 72 22.2 67 67 SSE 3 6 29.92 1013 10 16 N/A
9:54 pm 21:54 Mostly Cloudy 83 28.3 72 22.2 70 70 S 5 7 29.93 1014 10 16 N/A
10:54 pm 22:54 Mostly Cloudy 82 27.8 71 21.7 69 69 S 3 6 29.93 1014 10 16 N/A
11:54 pm 23:54 Partly Cloudy 81 27.2 71 21.7 72 72 VRB 3 6 29.92 1013 10 16 N/A

Powered by AerisWeather